Weather Roundup
Issued by NWS Chicago, IL

Home | Current Version | Previous Version | Text Only | Print | Product List | Glossary Off
Versions: 1 2 3 4 5 6 7 8 9 10 11 12 13 14 15 16 17 18 19 20 21 22 23 24 25 26 27 28 29 30 31 32 33 34 35 36 37 38 39 40 41 42 43 44 45 46 47 48 49 50

914
NZUS59 KLOT 241508
HRRLOT

CHICAGO AREA WEATHER ROUNDUP
NATIONAL WEATHER SERVICE CHICAGO/ROMEOVILLE IL
1000 AM CDT SUN JUL 24 2016

NOTE: "FAIR" INDICATES FEW OR NO CLOUDS BELOW 12,000 FEET WITH NO
SIGNIFICANT WEATHER AND/OR OBSTRUCTIONS TO VISIBILITY.

* THESE STATIONS ARE NOT UNDER NWS QUALITY CONTROL. THEY ALSO MAY NOT
  REPORT WEATHER SUCH AS PRECIPITATION OR FOG.

ILZ005-006-012>014-019>023-241600-
NORTHEAST ILLINOIS

CITY           SKY/WX    TMP DP  RH WIND       PRES   REMARKS
OHARE          PTSUNNY   81  74  79 S16       29.90F HX  86
MIDWAY         PTSUNNY   82  73  74 S14       29.90F HX  87
AURORA         MOSUNNY   83  77  82 S14       29.91F HX  92
LANSING*       CLOUDY    80  73  79 S12G18    29.93F HX  84
JOLIET*        MOSUNNY   84  79  85 S6        29.92F HX  95
WAUKEGAN       CLOUDY    82  75  79 SW14      29.87F HX  89
DUPAGE AIRPORT MOSUNNY   82  75  79 S15       29.90F HX  89
WHEELING       SUNNY     83  74  74 S13       29.90F HX  89
MORRIS*        CLOUDY    83  78  83 S8        29.90F HX  94
LEWIS AIRPORT* MOSUNNY   81  74  78 S12       29.92S HX  87
NORTHERLY ISL    N/A     79  71  76 S14         N/A  HX  82
$$

WIZ051-052-058>065-066-070>072-241600-
SOUTHEAST WISCONSIN

CITY           SKY/WX    TMP DP  RH WIND       PRES   REMARKS
MILWAUKEE      CLOUDY    81  75  82 S14       29.84F HX  87
KENOSHA*       CLOUDY    80  74  81 S12G20    29.87F HX  85
RACINE*        LGT RAIN  79  74  84 S9        29.87F HX  82
BURLINGTON     CLOUDY    80  76  87 S12       29.86F HX  86
WAUKESHA       SUNNY     75  73  94 S7        29.86
$$

INZ001>003-010>013-019-020-241600-
NORTHWEST INDIANA

CITY           SKY/WX    TMP DP  RH WIND       PRES   REMARKS
GARY*          MOSUNNY   81 N/A N/A S16       29.93F
MICHIGAN CITY* NOT AVBL
RENSSELAER*    NOT AVBL
VALPARAISO     MOSUNNY   81  72  74 S12       29.95F HX  85
$$

LMZ740>746-241600-
SOUTHERN LAKE MICHIGAN

STATION/POSITION TIME  SKY/WX   TEMP WIND        PRES    VSBY
                                AIR  DIR/SP/G
                 (UTC)          (F)  (DEG/KT/KT) (MB)    (MI)
HARRISON CRIB    1400            75  180/ 19/ 19   N/A
BURNHAM HARBOR   1500            80  180/ 12/ 15   N/A
CALUMET HARBOR   1400            77  180/ 10/ 15 1012.9F
BURNS HARBOR     1405            77  190/ 12/ 19 1013.9F
MICHIGAN CITY    1400            78  160/ 11/ 14   N/A
$$

ABBREVIATIONS USED IN REMARKS
   TC - TEMPERATURE IN CELSIUS
  WCI - WIND CHILL INDEX
   HX - HEAT INDEX
  VSB - VISIBILITY
$$




USA.gov is the U.S. government's official web portal to all federal, state and local government web resources and services.